[[{"header":{"parameterUnit":"m.s-1","parameterCategory":1,"la1":30.2991,"la2":30.254,"lo1":-89.0895,"lo2":-89.0444,"dy":0.0017,"dx":0.0017,"nx":28,"ny":28,"refTime":"2024-06-27T03:00:00:Z","depth":0,"parameterNumber":2,"parameterNumberName":"U-component_of_WINDS"},"data":[0,0,0,0,0,0,0,0,0,0,0,0,0,0,0,0,0,0,0,0,0,0,0,0,0,0,0,0,0,0,0,0,0,0,0,0,0,0,0,0,0,0,0,0,0,0,0,0,0,0,0,0,0,0,0,0,0,0,5.6831,5.6832,0,5.6929,5.693,5.6931,5.68,5.6795,5.6791,5.6786,5.689,5.6897,5.6904,0,0,0,0,0,0,0,0,0,0,0,0,0,5.6534,5.654,5.6831,5.6832,5.6833,5.6929,5.693,5.6931,5.6801,5.6795,5.6789,5.6784,5.6888,5.6897,5.6905,0,0,0,0,0,0,0,0,0,0,0,0,0,5.6651,5.6542,5.6831,5.678,5.6776,5.6928,5.693,5.6932,5.6802,5.6795,5.6788,5.6781,5.6885,5.6896,5.6906,5.7115,0,0,5.6939,5.6944,0,0,0,0,0,0,0,0,5.6644,5.6662,5.6786,5.6783,5.678,5.6845,5.6863,5.6993,5.6804,5.6792,5.6786,5.6778,5.6881,5.6892,5.6926,5.7119,5.7124,5.694,5.6947,5.6951,5.6954,0,0,0,0,0,0,0,5.6636,5.6657,5.687,5.6788,5.6784,5.6753,5.6761,5.6887,5.6876,5.6793,5.6783,5.6797,5.6878,5.6916,5.6927,5.7125,5.694,5.6949,5.6956,5.696,5.7492,5.7499,0,0,0,0,0,0,5.6634,5.6651,5.6867,5.6873,5.6693,5.6764,5.6774,5.6831,5.6874,5.6873,5.6803,5.679,5.6901,5.6915,5.6931,5.7174,5.6951,5.6961,5.6968,5.7484,5.7493,5.7502,0,0,0,0,0,0,5.6628,5.6654,5.6863,5.6759,5.6783,5.6776,5.6842,5.6837,5.6874,5.6881,5.6879,5.6843,5.6896,5.6915,5.7069,5.7176,5.6966,5.6976,5.7475,5.7487,5.7498,5.7666,0,0,0,0,0,0,5.662,5.6653,5.6731,5.6762,5.6789,5.6999,5.6849,5.6844,5.6893,5.6877,5.6918,5.6918,5.6892,5.7053,5.708,5.7187,5.6984,5.7465,5.748,5.7494,5.7651,5.7682,5.7708,0,0,0,0,0,5.661,5.6777,5.6736,5.6763,5.6887,5.7005,5.7021,5.6986,5.6902,5.6981,5.6985,5.6917,5.7161,5.707,5.7098,5.7211,5.7458,5.7476,5.7493,5.7638,5.7676,5.7708,0,0,0,0,0,0,5.6761,5.678,5.6735,5.6916,5.696,5.6983,5.7081,5.7028,5.7097,5.708,5.7035,5.7046,5.7209,5.7226,5.7124,5.7414,5.7296,5.7319,5.7396,5.7432,5.7461,5.7452,5.6993,0,0,0,0,0,5.6815,5.6908,5.692,5.7079,5.7103,5.7089,5.7139,5.7108,5.7152,5.717,5.7186,5.7232,5.7318,5.7377,5.7457,5.7653,5.7659,5.7745,5.7773,5.7797,5.7817,5.792,5.7957,5.7558,5.7558,5.7558,0,0,5.6928,5.695,5.7012,5.711,5.714,5.7238,5.7106,5.7215,5.7287,5.7188,5.7332,5.7345,5.7394,5.7569,5.7647,5.7588,5.7929,5.7819,5.7838,5.7845,5.7941,5.7979,5.8013,5.757,5.7568,5.7566,0,0,5.7184,5.7211,5.7344,5.7377,5.7423,5.7412,5.7445,5.7476,5.748,5.7624,5.755,5.7636,5.7787,5.7824,5.7863,5.8131,5.807,5.8159,5.8308,5.8409,5.844,5.8468,5.8561,5.8595,5.8179,5.818,5.818,0,5.7319,5.7462,5.742,5.7535,5.7579,5.7492,5.7626,5.7661,5.7732,5.7765,5.7698,5.7884,5.7911,5.8091,5.8157,5.8192,5.8226,5.8153,5.8439,5.8466,5.8491,5.858,5.8615,5.819,5.8189,5.8188,5.8187,0,5.7625,5.7725,5.7828,5.7896,5.7953,5.8078,5.8055,5.8117,5.8082,5.8078,5.8225,5.8254,5.8337,5.8379,5.8346,5.8555,5.8516,5.8446,5.8326,5.854,5.8622,5.8656,5.8205,5.8201,5.8198,5.8196,0,0,5.7978,5.802,5.8058,5.8087,5.8132,5.8209,5.8329,5.8409,5.8462,5.8515,5.8614,5.8743,5.8676,5.872,5.8691,5.8779,5.8987,5.8697,5.8697,5.8747,5.9216,5.9267,5.9307,5.8948,5.8954,5.8959,5.9211,0,5.8231,5.8436,5.8401,5.8601,5.8693,5.8611,5.8715,5.8754,5.8754,5.8832,5.8833,5.8923,5.883,5.8856,5.894,5.8944,5.908,5.8925,5.9038,5.9043,5.9026,5.935,5.9406,5.9642,5.9243,5.9248,5.9252,0,5.8553,5.8614,5.8823,5.885,5.8888,5.8982,5.9051,5.9127,5.9169,5.9163,5.9212,5.9165,5.9285,5.9165,5.9329,5.9224,5.9269,5.9278,5.9286,5.9293,5.9159,5.9364,5.9717,5.9751,5.9303,5.9299,5.9295,0,5.8786,5.8922,5.9062,5.909,5.9127,5.9195,5.9214,5.9249,5.9298,5.936,5.9391,5.9467,5.9508,5.9567,5.9542,5.9458,5.971,5.9589,5.9708,5.9708,5.9763,5.9759,6.0125,5.9796,5.9796,5.9795,5.9794,0,5.9071,5.9201,5.9167,5.9254,5.9397,5.9356,5.9499,5.9508,5.954,5.9627,5.9563,5.9646,5.9609,5.969,5.9672,5.9809,5.9829,5.9827,5.982,5.9831,5.9831,5.9858,5.984,5.9804,5.9802,5.9801,5.9799,0,5.9354,5.9337,5.9485,5.9507,5.9516,5.962,5.9639,5.972,5.9715,5.9826,5.985,5.9842,5.9934,5.9915,6.0017,6.0005,6.0176,6.015,6.0161,6.0154,6.0272,6.0261,6.0666,6.0716,6.0358,6.0361,6.0364,0,5.9536,5.9633,5.9665,5.9718,5.9741,5.9828,5.9877,5.9841,5.9895,5.995,6.0024,6.011,6.0176,6.0327,6.0331,6.0408,6.0382,6.0519,6.0393,6.04,6.038,6.0374,6.0382,6.0543,6.0547,6.055,6.0553,0,5.9859,5.9845,5.9918,5.9988,6.0048,6.0102,6.015,6.0197,6.0165,6.023,6.0322,6.0373,6.0475,6.0561,6.0632,6.0652,6.0598,6.0593,6.0624,6.0635,6.0636,6.0634,6.0226,6.0583,6.058,6.0578,6.0576,6.0575,6.0095,6.0177,6.0211,6.0294,6.0326,6.0372,6.0448,6.0451,6.0527,6.0606,6.0581,6.0685,6.0724,6.0813,6.0842,6.0923,6.0871,6.0917,6.0928,6.094,6.0953,6.0625,6.0936,6.0935,6.0934,6.0934,6.0933,0,6.0412,6.043,6.0506,6.0574,6.0639,6.0581,6.0631,6.0689,6.0781,6.0821,6.0887,6.0992,6.1074,6.1084,6.1161,6.1224,6.1201,6.1246,6.1239,6.1244,6.0995,6.0959,6.1263,6.1263,6.1263,6.1263,6.1262,6.1262,6.0584,6.0719,6.0709,6.0858,6.0875,6.0975,6.1008,6.105,6.1081,6.12,6.1267,6.1273,6.1301,6.1379,6.1452,6.1453,6.1483,6.1537,6.1528,6.1295,6.1262,6.1231,6.1196,6.1545,6.1545,6.1769,6.1772,6.1773]},{"header":{"parameterUnit":"m.s-1","parameterCategory":1,"la1":30.2991,"la2":30.254,"lo1":-89.0895,"lo2":-89.0444,"dy":0.0017,"dx":0.0017,"nx":28,"ny":28,"refTime":"2024-06-27T03:00:00:Z","depth":0,"parameterNumber":3,"parameterNumberName":"V-component_of_WINDS"},"data":[0,0,0,0,0,0,0,0,0,0,0,0,0,0,0,0,0,0,0,0,0,0,0,0,0,0,0,0,0,0,0,0,0,0,0,0,0,0,0,0,0,0,0,0,0,0,0,0,0,0,0,0,0,0,0,0,0,0,2.9115,2.9117,0,2.9315,2.9317,2.9319,2.9346,2.9344,2.9343,2.9341,2.9546,2.9553,2.956,0,0,0,0,0,0,0,0,0,0,0,0,0,2.8756,2.8762,2.9115,2.9117,2.912,2.9315,2.9317,2.932,2.9347,2.9344,2.9342,2.934,2.9543,2.9552,2.956,0,0,0,0,0,0,0,0,0,0,0,0,0,2.8929,2.8764,2.9114,2.9157,2.9162,2.9314,2.9317,2.9321,2.9347,2.9344,2.9341,2.9339,2.954,2.9551,2.9562,2.9685,0,0,2.9595,2.9599,0,0,0,0,0,0,0,0,2.8919,2.8942,2.9148,2.9154,2.9161,2.9303,2.9266,2.9443,2.9348,2.9277,2.9341,2.9337,2.9467,2.9484,2.9527,2.9695,2.9703,2.9596,2.9602,2.9607,2.961,0,0,0,0,0,0,0,2.8907,2.8934,2.9194,2.9151,2.9159,2.9165,2.9187,2.9299,2.9385,2.9283,2.9285,2.9309,2.947,2.9517,2.9532,2.9706,2.9595,2.9605,2.9612,2.9616,2.9984,2.9987,0,0,0,0,0,0,2.8888,2.8924,2.9188,2.92,2.9031,2.9174,2.9198,2.926,2.9384,2.9401,2.9311,2.9309,2.95,2.952,2.954,2.9692,2.9607,2.9617,2.9623,2.9981,2.9985,2.9988,0,0,0,0,0,0,2.888,2.8911,2.918,2.9063,2.9097,2.9183,2.9253,2.9265,2.9312,2.9405,2.9421,2.9343,2.9498,2.9525,2.9649,2.97,2.9622,2.9632,2.9977,2.9982,2.9987,2.9998,0,0,0,0,0,0,2.8869,2.8908,2.8956,2.9064,2.9104,2.9285,2.9256,2.9271,2.9331,2.9331,2.944,2.9455,2.9498,2.9632,2.9659,2.9713,2.964,2.9973,2.9979,2.9985,2.9994,3.0003,3.0011,0,0,0,0,0,2.8856,2.8951,2.8958,2.899,2.9165,2.9288,2.9311,2.9359,2.9335,2.9384,2.9443,2.9452,2.969,2.9645,2.9675,2.9733,2.997,2.9977,2.9985,2.999,3.0001,3.0011,0,0,0,0,0,0,2.8848,2.8966,2.8975,2.9108,2.9188,2.9292,2.9356,2.9369,2.9458,2.9454,2.9509,2.9533,2.9655,2.9707,2.9654,2.9859,2.9828,2.9841,2.9821,2.9833,2.9841,2.9826,2.9649,0,0,0,0,0,2.8861,2.8951,2.905,2.9157,2.9197,2.9269,2.9324,2.9354,2.9439,2.9473,2.9542,2.9624,2.9717,2.9778,2.9869,3.0001,3.0025,3.0056,3.0064,3.0071,3.0083,3.0156,3.0171,3.0013,3.0013,3.0013,0,0,2.889,2.8966,2.9019,2.9157,2.9223,2.9314,2.9298,2.9395,2.9464,2.9488,2.961,2.9663,2.9758,2.9886,2.9946,2.9933,3.0131,3.0081,3.0085,3.0093,3.0165,3.018,3.0193,3.0018,3.0017,3.0016,0,0,2.8989,2.9056,2.9152,2.9218,2.9317,2.9365,2.9388,2.9491,2.9527,2.9649,2.9669,2.9751,2.9911,2.9978,3.0033,3.0157,3.0167,3.0185,3.023,3.0301,3.0313,3.0325,3.0369,3.0384,3.0196,3.0196,3.0196,0,2.9013,2.9152,2.92,2.9298,2.9358,2.9383,2.9481,2.9543,2.9667,2.9707,2.9691,2.9891,2.9957,3.0101,3.0131,3.0175,3.0203,3.0173,3.0308,3.0319,3.0331,3.0373,3.039,3.0197,3.0197,3.0197,3.0197,0,2.9175,2.9271,2.9338,2.9456,2.9524,2.9621,2.9684,2.9746,2.977,2.9819,2.9943,3.0023,3.013,3.0166,3.0191,3.0314,3.0303,3.0296,3.0266,3.0346,3.0387,3.0404,3.0199,3.0199,3.0198,3.0198,0,0,2.9275,2.9419,2.9443,2.9497,2.9608,2.9683,2.9781,2.9886,2.9938,3.0022,3.0106,3.024,3.0234,3.0296,3.0328,3.039,3.0483,3.0376,3.0379,3.0393,3.0624,3.0628,3.0646,3.049,3.0494,3.0496,3.0615,0,2.9388,2.9563,2.9609,2.9759,2.9848,2.9873,2.9958,3.0035,3.0084,3.0166,3.0219,3.0313,3.0299,3.0337,3.0399,3.0458,3.053,3.045,3.0568,3.0572,3.0544,3.0667,3.0673,3.0781,3.0632,3.0635,3.0637,0,2.9542,2.9629,2.9787,2.9886,2.9925,3.0001,3.0101,3.0179,3.0267,3.0298,3.0367,3.0393,3.0495,3.0459,3.0601,3.0546,3.0597,3.0633,3.0638,3.0651,3.0609,3.0684,3.0817,3.0833,3.0662,3.066,3.0658,0,2.9599,2.9756,2.9871,2.9916,3.0034,3.0087,3.0139,3.0224,3.0283,3.037,3.041,3.0507,3.0561,3.0636,3.0687,3.0656,3.0825,3.0793,3.0853,3.0852,3.0888,3.0885,3.1031,3.092,3.092,3.092,3.0919,0,2.9719,2.9815,2.9898,2.9968,3.0076,3.0128,3.0233,3.0285,3.0361,3.0442,3.0469,3.0545,3.0608,3.0692,3.0732,3.0843,3.0867,3.0895,3.0905,3.0893,3.0889,3.0927,3.0921,3.0924,3.0923,3.0922,3.0922,0,2.9801,2.9861,2.9987,3.0089,3.0116,3.0191,3.0278,3.0347,3.0396,3.0498,3.0525,3.0601,3.0701,3.076,3.0886,3.0913,3.1037,3.1043,3.1007,3.1012,3.1068,3.1062,3.1244,3.1271,3.1142,3.1143,3.1144,0,2.9874,2.9948,3.0058,3.0114,3.0166,3.0256,3.0318,3.0371,3.0434,3.0539,3.0596,3.0697,3.0781,3.094,3.1007,3.1103,3.1112,3.1169,3.1127,3.1112,3.1113,3.1108,3.1115,3.1176,3.1178,3.1179,3.1179,0,2.9998,3.0023,3.011,3.0208,3.028,3.0359,3.0438,3.0482,3.0549,3.0618,3.0721,3.0786,3.0915,3.1015,3.1117,3.117,3.1186,3.1192,3.1211,3.12,3.1176,3.1189,3.1027,3.1188,3.1187,3.1186,3.1186,3.1186,3.0078,3.0144,3.0231,3.0328,3.0392,3.0465,3.0535,3.0592,3.0679,3.0788,3.0814,3.0922,3.1007,3.1146,3.1201,3.1286,3.1276,3.1304,3.1311,3.1317,3.1319,3.1162,3.1305,3.1305,3.1305,3.1304,3.1304,0,3.0202,3.0259,3.0347,3.0456,3.0532,3.054,3.0627,3.069,3.0784,3.0863,3.0945,3.1062,3.116,3.1234,3.1333,3.1387,3.1397,3.1411,3.1408,3.142,3.1322,3.1295,3.1402,3.1402,3.1402,3.1402,3.1402,3.1402,3.0276,3.0389,3.0425,3.057,3.0627,3.0733,3.0782,3.0849,3.0912,3.1042,3.1123,3.1171,3.1247,3.1353,3.1442,3.1461,3.1497,3.151,3.1531,3.1437,3.1427,3.1417,3.1392,3.1518,3.1518,3.1622,3.1623,3.1624]}]]